Location: *
(30.4476°N, 114.3798°E)
Time: 00:37:24
(UTC+00:00)

SL-24 R/B - Pass Details

Date: 09 April 2020
Orbit: 504 x 1003 km, 97.4° (Epoch: 27 May)

Event Time Altitude Azimuth Distance (km) Brightness Sun altitude
Rises 12:10:25 0° 11° (NNE) 2,718 7.5 -18.3°
Reaches altitude 10° 12:12:35 10° 12° (NNE) 1,779 6.5 -18.7°
Maximum altitude 12:16:22 86° 101° (E) 515 3.5 -19.4°
Enters shadow 12:19:22 15° 191° (S) 1,446 5.8 -20.0°
